Weather reports worldwide

Advertisment
Deauville, France (7031): temperature & dewpoint: 16.06.2018 15:00:00 - 22.06.2018 15:00:00 (CEST)Deauville, France (7031): temperature 5cm: 16.06.2018 15:00:00 - 22.06.2018 15:00:00 (CEST)Deauville, France (7031): wind speed & gusts: 16.06.2018 15:00:00 - 22.06.2018 15:00:00 (CEST)Deauville, France (7031): wind direction: 16.06.2018 15:00:00 - 22.06.2018 15:00:00 (CEST)Deauville, France (7031): reduced air pressure: 16.06.2018 15:00:00 - 22.06.2018 15:00:00 (CEST)Deauville, France (7031): visibility: 16.06.2018 15:00:00 - 22.06.2018 15:00:00 (CEST)Deauville, France (7031): precipitation: 16.06.2018 15:00:00 - 22.06.2018 15:00:00 (CEST)
Date & Time tt [°C] td [°C] tt 5cm [°C] ff [km/h] ff [kn] fx [km/h] fx [kn] dd ppp [hPa] vv [km] rr [mm]
22.06.2018 15:00:00 17,7 8,5 30,2 14 7 24 13 NW 1030,4 27 0,0
22.06.2018 14:00:00 17,6 8,7 29,3 12 7 26 14 NNW 1030,6 30 0,0
22.06.2018 13:00:00 17,1 9,0 28,4 14 7 26 14 N 1030,9 20 0,0
22.06.2018 12:00:00 16,4 8,4 22,3 10 6 22 12 N 1031,0 33 0,0
22.06.2018 11:00:00 15,8 8,8 21,8 10 6 20 11 N 1031,0 34 0,0
22.06.2018 10:00:00 15,3 9,6 18,7 9 5 20 11 N 1030,8 41 0,0
22.06.2018 09:00:00 14,1 7,2 12,0 5 3 11 6 WNW 1030,9 48 0,0
22.06.2018 08:00:00 11,2 10,9 3,7 0 0 4 2 N 1030,8 43 0,0
22.06.2018 07:00:00 7,7 7,6 -1,7 3 1 4 2 WSW 1030,8 19 0,0
22.06.2018 06:00:00 6,8 6,7 -2,5 2 1 4 2 W 1030,5 9 0,0
22.06.2018 05:00:00 7,2 7,1 -2,5 0 0 4 2 N 1030,3 14 0,0
22.06.2018 04:00:00 6,7 6,4 -2,3 0 0 0 0 N 1030,0 0,7 0,0
22.06.2018 03:00:00 7,0 6,6 -2,2 0 0 0 0 N 1030,0 3,0 0,0
22.06.2018 02:00:00 7,2 6,5 -1,8 0 0 0 0 N 1030,2 17 0,0
22.06.2018 01:00:00 8,0 7,2 -1,3 0 0 6 4 N 1029,9 54 0,0
22.06.2018 00:00:00 8,5 7,3 -0,4 5 3 6 3 NNE 1029,7 36 0,0
21.06.2018 23:00:00 9,7 6,8 1,5 4 2 11 6 NNE 1029,4 52 0,0
21.06.2018 22:00:00 12,1 6,8 9,3 9 5 18 10 NNE 1028,7 60 0,0
21.06.2018 21:00:00 14,5 6,6 15,7 13 7 25 14 NE 1028,1 49 0,0
21.06.2018 20:00:00 15,8 6,2 21,4 14 7 27 15 NE 1027,5 39 0,0
21.06.2018 19:00:00 16,6 7,0 25,5 16 9 31 17 NE 1027,3 39 0,0
21.06.2018 18:00:00 16,4 5,9 23,3 17 9 34 19 NE 1027,2 42 0,0
21.06.2018 17:00:00 15,8 6,2 20,5 18 10 32 18 NNE 1027,0 46 0,0
21.06.2018 16:00:00 15,6 7,1 22,8 16 9 35 19 NNE 1026,7 44 0,0
21.06.2018 15:00:00 15,6 8,3 21,8 21 11 35 19 N 1026,2 57 0,0
21.06.2018 14:00:00 16,4 7,1 26,9 16 9 34 18 NNE 1025,7 20 0,0
21.06.2018 13:00:00 16,0 7,7 24,6 18 10 38 21 NNE 1025,6 19 0,0
21.06.2018 12:00:00 15,6 7,1 22,7 17 9 35 19 N 1025,1 20 0,0
21.06.2018 11:00:00 15,1 7,4 20,8 20 11 35 19 NNE 1024,9 44 0,0
21.06.2018 10:00:00 14,7 6,5 15,5 23 13 39 21 NNE 1024,8 42 0,0
21.06.2018 09:00:00 14,1 8,3 12,7 18 10 32 18 NNE 1024,2 32 0,0
21.06.2018 08:00:00 13,4 9,6 12,1 15 8 28 15 NNE 1023,6 53 0,0
21.06.2018 07:00:00 13,2 11,9 12,7 13 7 26 14 N 1023,1 43 0,0
21.06.2018 06:00:00 14,1 14,1 14,0 12 7 23 12 NNW 1022,2 10 0,2
21.06.2018 05:00:00 14,4 14,4 14,3 14 8 32 17 NW 1021,9 2,8 0,2
21.06.2018 04:00:00 14,2 14,2 14,0 14 8 27 15 WNW 1022,0 0,1 0,0
21.06.2018 03:00:00 14,1 14,1 13,8 13 7 24 13 NW 1021,9 0,1 0,0
21.06.2018 02:00:00 13,9 13,9 13,9 13 7 24 13 NW 1022,2 0,2 0,0
21.06.2018 01:00:00 14,0 13,8 14,0 9 5 21 12 NW 1022,2 0,3 0,0
21.06.2018 00:00:00 14,1 13,9 12,9 6 4 15 8 NNW 1022,1 0,3 0,0
20.06.2018 23:00:00 14,1 13,9 13,9 6 4 15 8 WNW 1021,9 0,1 0,2
20.06.2018 22:00:00 14,9 14,6 14,4 8 4 14 7 NW 1021,4 0,2 0,0
20.06.2018 21:00:00 15,7 14,9 16,5 11 6 16 9 NW 1021,3 0,2 0,0
20.06.2018 20:00:00 20,6 15,6 27,3 8 4 17 9 NNW 1021,1 32 0,0
20.06.2018 19:00:00 20,0 16,6 29,2 9 5 17 9 NNW 1021,2 14 0,0
20.06.2018 18:00:00 21,0 16,8 30,8 10 5 20 11 NNW 1021,4 15 0,0
20.06.2018 17:00:00 23,0 18,5 35,0 12 7 19 10 NW 1021,5 18 0,0
20.06.2018 16:00:00 23,6 17,3 36,5 13 7 21 12 NNW 1021,7 18 0,0
20.06.2018 15:00:00 23,4 19,3 35,4 9 5 17 9 NW 1021,8 18 0,0
20.06.2018 14:00:00 22,4 18,2 27,6 12 7 20 11 N 1022,3 20 0,0
20.06.2018 13:00:00 22,9 17,4 29,8 5 3 18 10 W 1022,7 5 0,0
20.06.2018 12:00:00 21,7 17,3 34,6 8 5 18 10 WSW 1023,1 8 0,0
20.06.2018 11:00:00 19,9 16,5 25,6 9 5 16 8 SSW 1023,4 12 0,0
20.06.2018 10:00:00 18,1 15,9 22,3 5 3 10 5 SSW 1023,8 12 0,0
20.06.2018 09:00:00 16,5 15,9 18,6 4 2 8 4 S 1023,5 9 0,0
20.06.2018 08:00:00 15,8 15,6 16,4 3 2 7 4 S 1023,5 2,9 0,0
20.06.2018 07:00:00 15,6 15,4 15,2 3 1 7 4 SE 1023,5 3,6 0,0
20.06.2018 06:00:00 15,4 15,2 15,2 2 1 7 4 SE 1023,5 3,4 0,0
20.06.2018 05:00:00 15,4 15,1 15,4 3 1 5 3 ESE 1023,8 5 0,0
20.06.2018 04:00:00 15,3 15,1 15,2 0 0 6 4 N 1023,9 9 0,0
20.06.2018 03:00:00 15,2 15,0 14,9 0 0 7 4 N 1024,4 6 0,0
20.06.2018 02:00:00 15,0 14,8 10,5 3 2 6 4 NE 1024,8 6 0,0
20.06.2018 01:00:00 14,4 14,2 5,9 6 3 9 5 NE 1025,1 2,6 -
20.06.2018 00:00:00 13,7 13,1 6,0 3 2 7 4 NNE 1025,4 0,3 0,0
19.06.2018 23:00:00 14,9 14,4 7,4 6 3 8 5 N 1025,3 18 0,0
19.06.2018 22:00:00 16,3 14,7 13,2 4 2 10 6 NNW 1025,0 60 0,0
19.06.2018 21:00:00 18,6 15,5 20,9 7 4 15 8 N 1025,1 47 0,0
19.06.2018 20:00:00 19,6 15,9 26,2 9 5 16 8 N 1025,1 57 0,0
19.06.2018 19:00:00 19,5 16,0 24,8 9 5 18 10 NNW 1025,4 55 0,0
19.06.2018 18:00:00 20,2 15,8 27,2 7 4 16 9 NNW 1025,6 35 0,0
19.06.2018 17:00:00 20,1 15,9 27,6 9 5 16 9 NW 1025,9 51 0,0
19.06.2018 16:00:00 20,2 15,8 28,8 8 4 14 7 WNW 1026,1 32 0,0
19.06.2018 15:00:00 19,1 16,0 24,7 10 5 15 8 WNW 1026,6 60 0,0
19.06.2018 14:00:00 18,4 15,5 24,1 9 5 18 10 NW 1026,7 60 0,0
19.06.2018 13:00:00 18,3 15,0 22,6 11 6 21 12 NW 1026,8 60 0,0
19.06.2018 12:00:00 17,8 15,8 20,3 13 7 23 13 WNW 1026,6 37 0,0
19.06.2018 11:00:00 17,0 15,7 18,5 12 6 20 11 W 1026,9 13 0,0
19.06.2018 10:00:00 16,4 15,8 17,3 11 6 20 11 W 1026,9 19 0,0
19.06.2018 09:00:00 16,2 15,9 17,0 13 7 22 12 W 1026,6 8 0,0
19.06.2018 08:00:00 15,6 15,4 15,5 14 8 21 12 W 1026,5 3,8 0,0
19.06.2018 07:00:00 15,1 14,9 14,8 9 5 16 9 W 1026,3 3,5 0,4
19.06.2018 06:00:00 14,9 14,7 14,6 13 7 24 13 W 1026,3 2,3 0,2
19.06.2018 05:00:00 14,8 14,5 14,5 14 8 36 19 WNW 1025,8 4,5 0,0
19.06.2018 04:00:00 15,1 14,6 14,9 21 11 35 19 WNW 1025,6 6 0,0
19.06.2018 03:00:00 15,6 15,0 15,5 20 11 30 16 WNW 1025,4 20 0,0
19.06.2018 02:00:00 15,9 14,9 15,6 17 9 29 16 WNW 1025,5 18 0,0
19.06.2018 01:00:00 16,0 14,9 15,5 16 9 27 15 W 1025,5 46 0,0
19.06.2018 00:00:00 16,3 14,3 15,8 13 7 20 11 W 1025,6 54 0,0
18.06.2018 23:00:00 16,4 13,7 16,0 14 8 24 13 WNW 1025,5 48 0,0
18.06.2018 22:00:00 16,6 14,1 16,4 16 8 23 12 WNW 1025,1 38 0,0
18.06.2018 21:00:00 17,1 13,8 17,4 11 6 21 11 NW 1024,5 27 0,0
18.06.2018 20:00:00 18,5 13,6 24,0 16 9 24 13 NW 1024,2 21 0,0
18.06.2018 19:00:00 19,0 13,4 27,7 15 8 23 12 WNW 1023,9 17 0,0
18.06.2018 18:00:00 19,6 13,5 29,4 16 8 26 14 WNW 1023,8 18 0,0
18.06.2018 17:00:00 18,4 13,5 30,2 12 6 26 14 NW 1024,2 19 0,0
18.06.2018 16:00:00 18,3 13,6 27,6 17 9 32 17 WNW 1024,3 30 0,0
18.06.2018 15:00:00 17,7 14,0 19,9 20 11 36 19 WNW 1024,4 45 0,0
18.06.2018 14:00:00 16,8 13,1 19,2 22 12 33 18 WNW 1024,4 50 0,0
18.06.2018 13:00:00 15,9 13,4 17,1 13 7 24 13 W 1024,1 51 0,0
18.06.2018 12:00:00 15,3 12,6 16,8 16 9 31 17 WNW 1024,0 34 0,0
18.06.2018 11:00:00 15,0 12,7 15,1 21 11 39 21 WNW 1023,6 34 0,0
18.06.2018 10:00:00 15,3 13,5 16,1 16 9 27 15 W 1023,0 54 0,0
18.06.2018 09:00:00 14,9 13,8 15,0 10 5 25 14 W 1022,5 17 0,0
18.06.2018 08:00:00 14,8 13,0 13,9 13 7 30 16 W 1022,1 54 0,0
18.06.2018 07:00:00 14,6 13,8 14,3 17 9 28 15 W 1021,8 18 0,0
18.06.2018 06:00:00 14,7 14,2 14,4 17 9 27 15 W 1021,4 37 0,2
18.06.2018 05:00:00 15,0 14,7 14,7 13 7 20 11 W 1021,0 9 0,4
18.06.2018 04:00:00 15,0 14,4 14,7 11 6 22 12 SW 1020,9 6 0,2
18.06.2018 03:00:00 15,6 13,6 15,3 13 7 25 13 SW 1020,8 18 0,0
18.06.2018 02:00:00 15,9 13,4 15,2 15 8 26 14 SW 1021,0 57 0,0
18.06.2018 01:00:00 15,8 13,3 14,7 16 8 24 13 WSW 1021,1 54 0,0
18.06.2018 00:00:00 15,7 13,2 14,5 14 8 30 16 SW 1021,0 58 0,0
17.06.2018 23:00:00 15,7 13,4 14,6 16 9 29 16 WSW 1021,4 6 0,0
17.06.2018 22:00:00 16,5 12,8 15,7 14 8 31 17 WSW 1020,8 54 0,0
17.06.2018 21:00:00 17,4 12,1 17,8 12 7 24 13 WSW 1020,4 60 0,0
17.06.2018 20:00:00 17,6 12,3 18,9 7 4 31 17 W 1020,4 60 0,0
17.06.2018 19:00:00 18,0 12,0 20,2 14 8 26 14 WSW 1020,1 47 0,0
17.06.2018 18:00:00 18,2 11,7 22,4 8 5 21 11 WSW 1020,0 36 0,0
17.06.2018 17:00:00 18,6 11,9 24,9 12 7 27 15 W 1020,3 32 0,0
17.06.2018 16:00:00 18,7 11,5 25,1 18 10 29 16 WNW 1020,3 25 0,0
17.06.2018 15:00:00 18,4 10,7 24,9 16 9 28 15 W 1020,2 20 0,0
17.06.2018 14:00:00 17,7 10,6 17,6 12 7 26 14 WSW 1020,7 47 0,0
17.06.2018 13:00:00 16,0 11,0 20,7 11 6 29 16 WSW 1020,8 36 0,0
17.06.2018 12:00:00 15,4 11,0 18,9 16 9 31 17 W 1020,7 29 0,0
17.06.2018 11:00:00 14,9 10,7 16,1 21 12 29 16 W 1021,0 25 0,0
17.06.2018 10:00:00 14,1 11,1 15,3 14 7 23 13 W 1020,9 37 0,0
17.06.2018 09:00:00 13,3 10,7 13,5 12 6 20 11 WSW 1020,5 35 0,0
17.06.2018 08:00:00 12,6 10,3 11,9 12 7 19 11 WSW 1020,1 44 0,0
17.06.2018 07:00:00 11,7 9,9 10,8 10 5 20 11 WSW 1019,6 44 0,0
17.06.2018 06:00:00 11,7 9,8 9,3 10 5 16 9 WSW 1019,4 43 0,0
17.06.2018 05:00:00 10,9 9,3 9,2 9 5 16 9 WSW 1019,4 20 0,0
17.06.2018 04:00:00 11,2 9,3 9,0 9 5 19 11 WSW 1019,6 42 0,0
17.06.2018 03:00:00 12,1 9,7 10,3 12 6 27 15 W 1019,5 39 0,0
17.06.2018 02:00:00 12,6 10,0 10,9 16 9 24 13 W 1019,3 39 0,0
17.06.2018 01:00:00 13,4 10,2 12,3 16 9 30 16 W 1019,1 36 0,0
17.06.2018 00:00:00 14,1 11,3 13,1 15 8 31 17 W 1019,0 36 0,0
16.06.2018 23:00:00 14,4 11,2 13,9 19 10 29 16 WNW 1018,5 39 0,0
16.06.2018 22:00:00 14,5 12,2 13,8 14 7 27 14 WNW 1018,2 47 0,0
16.06.2018 21:00:00 15,5 11,9 15,0 6 3 23 12 NNW 1017,9 58 0,0
16.06.2018 20:00:00 17,5 11,3 19,4 4 2 16 9 NW 1017,5 60 0,0
16.06.2018 19:00:00 18,1 11,2 21,8 9 5 20 11 WNW 1017,3 56 0,0
16.06.2018 18:00:00 18,6 11,2 25,5 13 7 24 13 WNW 1017,5 44 0,0
16.06.2018 17:00:00 18,7 11,5 25,2 10 5 18 10 NW 1017,4 53 0,0
16.06.2018 16:00:00 17,6 11,4 23,5 9 5 19 10 NW 1017,4 50 0,0
16.06.2018 15:00:00 17,6 10,9 23,1 11 6 22 12 WNW 1017,4 22 0,0

tt = temperature
td = dewpoint
tt 5cm = temperature 5cm
ff = wind speed
fx = gusts
dd = wind direction
ppp = reduced air pressure
vv = visibility
rr = precipitation

Next stations